Wind_Speed
12 12 12 12 11 10 10 9 9 9 10 11 12 13 14 14 14 15 16 18 18 18 19 19 19 19 19 19 19 19 19 19 19 19 20 21 21 22 22 22 22 23 23 23 24 24 24 24 25 25 26 26 27 28 28 29 29 30 32 33 34 34 35 35 36 36 36 36 36
12 12 12 12 11 10 10 9 9 9 10 11 12 12 13 13 13 14 15 16 16 17 18 18 19 20 21 21 21 21 21 21 21 21 21 22 22 23 24 24 25 25 26 26 26 26 27 27 27 27 28 28 29 29 30 30 30 31 32 33 34 35 36 37 37 38 38 38 38
13 12 12 12 11 11 11 10 10 10 10 11 11 11 11 11 12 12 12 13 14 15 16 17 19 20 21 22 22 23 23 23 24 24 24 24 24 24 25 25 26 27 27 28 28 29 29 30 30 30 30 31 31 31 31 32 32 32 33 34 34 35 36 38 39 39 39 40 40
12 12 12 12 12 12 11 11 10 9 10 10 10 11 11 11 11 11 11 12 13 14 15 16 17 18 19 20 21 22 23 24 24 25 26 26 26 26 26 27 27 28 28 29 30 30 31 31 32 32 33 33 33 34 34 34 34 34 34 35 35 35 36 38 39 40 40 41 41
11 11 12 12 12 11 11 11 11 10 10 10 11 11 11 11 11 11 11 12 12 13 13 14 15 16 16 17 18 19 19 21 22 23 24 26 27 27 28 28 29 29 30 30 30 31 31 32 33 33 34 35 35 36 35 35 35 35 35 35 36 36 37 38 39 40 41 42 42
10 10 10 10 10 10 10 10 11 11 10 11 11 12 12 13 12 12 12 12 12 12 12 13 13 14 14 14 15 16 16 17 18 19 20 22 23 25 26 27 29 30 30 31 32 32 33 33 34 34 35 35 35 34 33 32 31 31 32 32 33 34 35 36 38 39 40 41 42
8 8 8 9 9 9 9 9 10 10 10 10 11 12 13 13 13 13 13 13 13 13 13 13 14 14 14 14 15 15 15 16 16 16 17 17 18 20 21 23 24 26 27 29 30 31 32 33 33 34 34 33 32 30 29 29 29 30 31 31 32 32 32 32 33 35 36 38 39
6 7 7 7 7 7 7 8 8 9 9 9 10 11 11 12 12 12 13 13 13 14 14 14 14 15 15 16 16 16 16 16 16 16 16 17 17 17 18 18 19 20 22 23 25 26 27 28 29 29 31 32 31 30 30 31 32 33 34 34 34 33 32 31 31 32 33 34 35
5 5 6 6 6 6 6 7 7 7 8 8 9 9 10 10 11 11 12 12 13 13 14 14 14 15 16 16 17 17 17 17 17 17 17 18 18 18 18 18 18 18 19 19 20 21 22 23 24 25 27 26 25 27 29 30 30 31 32 32 33 33 33 32 31 31 32 33 33
5 5 5 5 5 5 6 6 6 7 7 7 8 9 9 10 10 10 11 11 12 12 13 13 14 14 15 16 16 17 17 17 17 17 18 18 19 19 19 19 19 19 19 19 19 19 19 20 20 22 23 24 25 26 27 27 27 27 28 28 29 29 29 30 30 31 31 32 33
5 5 5 5 5 5 5 6 6 6 7 7 8 8 9 9 10 10 10 11 11 12 12 13 14 14 14 15 16 16 17 17 17 17 17 17 18 18 18 19 19 19 19 19 19 19 19 19 19 19 20 22 23 24 25 26 26 26 27 27 28 27 27 28 28 28 28 29 30
5 5 6 6 6 6 6 6 7 7 7 7 8 8 9 9 10 10 10 10 11 11 12 13 13 14 15 15 16 16 16 17 17 17 17 17 17 17 17 18 18 18 19 19 19 19 20 20 20 20 20 21 22 22 23 24 25 26 26 27 28 28 28 29 29 29 29 29 30
7 7 7 7 7 7 7 7 8 8 8 8 9 9 9 10 10 10 11 11 11 12 12 13 13 14 15 15 16 16 16 17 17 18 18 18 18 18 18 18 18 18 19 19 20 21 21 21 22 22 22 23 23 24 24 25 25 26 27 27 28 29 29 30 30 31 31 31 32
9 9 9 9 9 9 9 9 9 9 9 9 10 10 10 11 11 11 11 12 12 12 13 13 14 14 15 15 16 16 16 16 17 17 18 18 19 19 19 19 19 19 20 20 21 21 22 23 24 24 24 25 25 26 26 27 27 27 28 28 29 29 30 30 31 31 31 32 32
11 11 11 10 10 10 10 10 10 10 10 10 11 11 11 12 12 12 12 13 13 13 13 14 14 14 15 15 15 16 16 16 16 16 17 17 17 18 18 18 19 19 19 20 20 21 22 23 24 25 25 26 27 27 28 28 29 29 30 30 30 30 31 31 32 32 32 32 32
13 12 12 12 12 12 12 12 12 12 12 12 12 12 12 13 13 13 13 14 14 14 14 14 15 15 15 15 15 15 15 15 16 16 16 17 17 17 17 17 17 18 18 18 19 19 20 21 22 23 24 25 26 27 28 29 30 30 31 32 32 32 32 33 33 33 33 33 33
13 13 13 13 13 13 13 13 13 13 13 13 13 14 14 14 14 14 15 15 15 15 15 15 15 15 15 15 15 15 16 16 16 17 17 18 18 18 19 19 19 19 19 19 19 20 20 20 21 22 23 24 25 26 27 28 29 30 31 32 32 32 33 33 33 33 34 34 34
13 13 13 14 14 14 14 14 15 15 14 15 15 15 15 15 15 15 16 16 16 16 16 16 16 16 16 16 16 16 17 17 17 18 19 19 20 20 21 21 21 21 22 22 22 22 23 23 23 24 24 25 26 26 27 28 28 29 30 30 31 31 31 31 32 32 33 34 35
13 13 14 14 14 15 15 15 15 15 15 15 16 16 16 16 16 16 16 16 16 16 16 16 16 16 16 16 16 17 17 18 18 19 19 20 21 21 22 22 23 23 23 24 24 25 25 26 26 27 28 28 29 29 30 30 31 31 32 32 31 31 30 30 31 31 32 33 34
13 13 14 14 14 15 15 15 16 16 16 16 16 16 16 16 17 17 16 16 17 17 17 17 17 16 16 17 17 17 18 18 19 19 20 20 21 21 22 23 23 24 24 25 25 25 26 27 27 28 29 30 30 31 32 33 33 34 35 35 35 34 33 32 32 32 32 33 34
13 13 13 14 14 14 15 15 15 16 16 16 16 16 16 16 17 17 17 17 17 17 17 17 17 17 17 18 18 18 18 19 19 20 20 21 21 22 22 23 23 24 24 25 25 26 26 26 27 28 29 29 30 31 32 33 34 35 35 36 36 36 35 35 34 34 34 35 35
12 13 13 13 14 14 14 14 15 15 15 15 15 16 16 16 16 17 17 17 17 17 17 18 18 18 18 19 19 19 20 20 20 21 21 22 22 22 23 23 23 24 24 25 25 26 26 27 27 27 28 29 29 30 31 32 33 34 34 35 35 35 36 35 35 35 36 36 37
12 12 12 13 13 13 14 14 14 14 15 15 15 15 16 16 16 17 17 17 17 18 18 18 19 19 19 20 20 20 21 21 22 22 23 23 23 24 24 24 24 24 25 25 26 26 27 27 28 28 28 28 29 30 31 31 32 33 34 34 34 35 35 35 35 36 36 36 37
12 12 12 12 13 13 13 14 14 14 15 15 16 16 16 17 17 17 18 18 19 19 19 20 20 20 20 20 21 21 22 23 23 24 24 24 25 25 26 26 26 25 25 25 26 26 27 28 28 28 28 29 29 30 31 31 32 33 33 34 34 35 35 35 35 35 35 36 36
12 12 12 13 13 13 14 14 14 15 16 16 17 17 17 18 18 19 19 20 20 20 21 21 21 21 21 22 22 22 23 24 24 25 25 26 26 27 27 27 27 27 26 26 26 26 26 26 27 27 28 28 29 30 31 31 32 32 33 33 34 34 35 35 35 35 35 35 36
12 12 13 13 14 14 15 15 16 16 17 18 18 19 19 20 20 20 21 21 21 22 22 22 22 22 23 23 23 23 24 24 25 25 26 27 27 27 28 28 28 28 27 27 27 26 26 26 26 26 26 27 28 30 31 31 32 32 32 33 33 34 34 35 35 35 35 35 36
13 13 14 14 15 15 16 17 17 18 19 19 20 20 21 21 21 22 22 22 23 23 23 23 23 24 24 24 25 25 25 26 26 26 27 27 27 28 28 28 28 28 28 27 27 26 26 26 25 25 25 25 27 28 30 31 32 32 32 32 33 33 34 35 36 36 37 37 37
13 14 14 15 15 16 17 18 18 19 20 20 21 21 22 22 23 23 23 24 24 24 25 25 25 25 26 26 26 27 27 27 27 28 28 28 28 28 28 28 28 28 28 27 27 26 26 26 26 25 25 25 26 27 29 30 31 31 32 32 32 33 33 35 36 37 38 39 39
14 14 15 15 16 17 17 18 19 19 20 21 21 22 22 23 23 24 24 25 25 26 26 27 27 28 28 28 28 29 29 29 29 29 29 29 29 29 28 28 28 27 27 27 26 26 26 26 26 25 25 24 25 26 28 29 30 31 31 31 32 33 34 35 36 37 38 39 40
14 15 15 16 17 17 18 19 19 20 21 21 22 22 23 24 24 25 25 26 27 27 28 28 29 29 29 30 30 30 30 30 30 30 30 29 29 29 29 28 27 27 26 26 26 26 26 26 25 25 25 24 25 26 27 28 29 30 31 32 32 33 35 36 37 38 39 40 41
15 16 16 17 18 18 19 20 20 21 22 22 23 24 24 25 26 26 27 27 28 28 29 29 29 30 30 30 30 30 31 31 31 31 30 30 29 29 29 28 27 26 26 26 26 26 26 25 25 25 25 25 25 26 27 28 29 30 31 33 33 35 36 37 38 39 40 41 42
16 17 18 19 19 20 21 21 22 22 23 23 24 25 25 26 26 27 27 28 28 29 29 29 29 30 30 30 31 31 31 31 31 31 30 30 29 29 28 27 26 26 25 25 25 25 25 25 25 24 25 25 26 27 28 29 30 31 33 34 35 36 37 38 39 40 41 42 42
18 19 19 20 21 21 22 22 23 23 24 24 25 25 26 26 27 27 28 28 29 29 29 29 29 30 30 30 31 31 31 31 31 31 30 30 29 29 28 27 25 25 25 25 25 25 25 25 24 24 25 26 27 28 29 30 32 33 34 36 37 38 39 40 41 42 42 43 43
19 20 20 21 21 22 22 23 23 23 24 25 25 26 26 27 27 27 28 28 29 29 29 29 29 29 30 30 30 30 31 31 31 30 30 30 29 28 27 26 25 24 24 24 24 24 24 24 24 25 26 27 28 29 31 32 34 35 36 37 38 40 41 42 43 44 44 44 45
20 20 21 21 21 22 22 23 23 24 24 25 25 26 26 27 27 27 28 28 28 28 28 29 29 29 29 30 30 30 30 30 30 30 30 29 29 28 27 25 24 24 24 24 24 24 24 24 24 25 27 28 29 31 32 34 35 36 37 39 40 41 43 44 45 45 46 46 47
20 20 21 21 22 22 22 23 23 24 24 25 25 26 26 26 27 27 28 28 28 28 28 28 28 28 29 29 29 30 30 30 30 30 30 29 29 28 27 26 25 24 24 24 24 24 24 24 25 26 27 29 31 32 33 35 36 37 39 40 42 43 44 45 46 47 48 48 48
20 20 21 21 22 22 23 23 24 24 25 25 25 26 26 26 27 27 27 28 28 28 28 28 28 28 29 29 29 29 30 30 30 30 30 29 28 27 27 26 25 25 24 24 24 24 24 25 25 27 28 30 32 33 34 36 37 39 40 41 43 44 45 47 48 49 49 50 50
20 20 21 21 22 22 23 23 24 24 25 25 25 26 26 26 26 27 27 27 28 28 28 28 28 28 28 29 29 29 29 30 30 30 29 29 28 27 27 26 26 25 24 24 24 24 25 25 26 27 28 30 32 34 35 36 38 39 41 42 44 45 47 48 49 50 51 51 51
19 20 20 21 21 22 23 23 24 24 24 25 25 25 26 26 26 26 27 27 27 27 27 28 28 28 28 28 29 29 29 29 29 29 29 28 27 26 26 26 26 25 25 25 25 25 26 26 27 28 29 30 32 34 35 37 39 40 42 43 44 46 48 49 50 50 51 52 52
19 20 20 21 21 22 22 23 23 24 24 25 25 25 25 26 26 26 26 26 26 27 27 27 27 27 28 28 28 28 29 29 29 29 28 28 27 26 26 26 27 27 26 26 27 27 27 28 28 28 29 30 31 33 35 37 39 40 42 43 45 46 48 49 50 51 52 53 53
19 19 20 20 21 21 22 22 23 23 24 24 25 25 25 25 25 26 26 26 26 26 26 26 26 27 27 27 28 28 28 29 29 29 28 28 28 27 28 28 28 29 29 29 29 29 29 29 29 29 29 30 31 33 35 37 38 40 42 44 45 46 47 49 50 51 52 52 53
Wind_Direction
357 352 347 341 336 331 327 323 322 320 316 312 311 310 308 307 307 306 304 303 305 306 306 305 304 303 302 301 300 298 295 292 289 286 283 281 279 278 276 275 275 275 275 275 275 275 275 275 276 276 276 277 277 278 279 279 281 282 282 282 282 282 282 281 281 280 280 279 279
5 2 356 351 346 339 333 328 325 322 318 314 312 310 308 307 306 305 303 303 305 306 306 304 303 302 301 301 300 299 297 295 293 291 288 285 282 280 278 276 275 275 274 274 274 274 275 275 275 276 276 276 277 278 278 279 280 281 282 282 282 282 282 281 280 280 280 280 280
15 12 7 1 356 350 343 338 332 325 321 320 319 317 314 311 309 307 307 308 309 308 307 305 303 302 301 301 300 299 298 296 295 293 290 288 286 283 281 279 277 276 275 274 274 274 274 274 275 275 276 277 277 278 279 280 281 282 282 282 282 282 282 281 281 281 281 280 280
22 19 15 11 7 3 360 356 351 345 339 336 334 331 328 324 321 318 316 315 314 312 311 309 307 306 305 304 302 300 299 297 295 293 291 289 288 286 284 283 281 279 278 277 276 275 275 274 274 275 275 276 277 278 279 280 282 283 283 283 283 282 281 281 281 281 280 280 280
22 20 18 15 13 10 8 7 6 5 1 357 353 349 347 345 341 336 331 327 323 321 321 319 318 316 315 313 310 307 304 302 298 295 293 290 288 287 285 284 283 282 281 280 279 278 277 276 276 276 276 276 277 278 279 281 282 284 284 284 283 282 281 281 280 280 280 279 279
17 16 14 12 10 9 8 9 10 12 11 8 4 1 1 0 358 353 347 342 340 339 339 337 334 331 329 327 324 321 318 314 310 305 301 296 292 289 287 285 283 283 282 281 280 279 279 278 278 277 277 277 277 277 278 279 280 281 281 281 281 280 279 278 278 277 277 277 278
11 9 7 6 6 5 5 7 8 10 10 8 7 5 5 4 3 359 355 352 351 350 349 348 345 343 341 340 337 335 333 330 327 322 317 311 306 300 295 291 288 285 283 281 280 279 279 278 278 278 277 277 278 278 278 276 275 275 275 275 275 275 274 273 272 272 273 274 274
3 1 360 360 360 360 0 3 4 6 5 4 4 3 2 1 359 356 353 351 349 349 349 348 346 344 343 342 341 340 339 337 336 334 331 328 324 320 315 309 303 298 293 289 286 284 282 281 280 280 279 278 279 278 277 274 273 272 271 270 270 270 269 268 268 268 268 270 271
356 355 355 354 353 353 354 356 358 360 360 358 357 355 355 354 353 350 348 346 345 345 344 343 341 339 338 337 336 335 335 334 334 334 333 333 332 330 328 326 322 318 312 307 301 296 292 288 285 283 281 279 278 276 273 272 271 269 268 268 267 267 266 265 265 264 265 265 266
356 355 354 352 350 350 350 351 352 354 354 352 350 349 348 348 347 345 343 342 341 339 338 336 335 333 332 331 330 330 329 328 328 328 328 328 328 328 328 327 327 325 323 319 315 310 304 298 292 287 283 280 277 275 273 271 270 269 268 268 268 267 266 265 265 264 264 264 264
5 4 2 360 358 356 354 353 353 353 352 351 349 347 345 345 344 342 341 339 337 333 331 330 329 328 327 326 326 325 324 323 322 321 321 320 320 320 320 320 320 320 319 318 316 313 309 304 299 294 289 285 282 280 278 276 275 274 273 273 273 272 271 270 269 268 268 267 266
19 18 17 14 11 8 5 2 360 358 356 355 353 350 348 346 345 343 341 338 334 331 330 329 327 326 325 324 323 322 321 319 318 316 314 313 312 311 311 311 311 310 310 310 309 308 306 304 301 298 295 292 290 288 287 286 284 283 282 281 280 280 279 278 277 276 275 274 274
23 23 22 20 17 15 11 7 4 2 0 359 357 356 353 352 349 347 345 342 339 336 334 332 330 328 326 325 324 322 321 319 317 315 312 310 308 307 306 305 304 303 303 302 302 301 300 299 298 296 295 294 293 292 292 291 291 290 288 287 286 286 285 285 284 284 283 282 281
16 16 16 15 13 12 9 6 4 2 360 359 358 357 356 355 353 351 349 347 344 342 339 337 335 333 331 329 328 327 325 323 320 318 314 312 310 308 306 305 303 302 301 299 298 298 297 296 295 294 294 293 292 292 292 292 292 291 290 289 289 288 288 288 288 288 288 288 287
7 7 7 6 5 5 3 1 360 359 357 356 356 355 355 354 352 351 349 348 346 344 342 341 338 337 335 334 333 332 331 329 327 324 321 319 316 314 312 311 309 307 304 302 300 299 297 296 295 294 294 293 293 292 292 291 291 291 291 290 290 290 290 290 290 290 290 290 289
1 360 360 360 359 359 358 357 357 356 355 354 353 353 353 352 350 349 347 346 345 344 343 341 340 338 338 337 336 336 336 336 335 333 331 330 328 326 325 323 321 318 315 312 308 305 302 300 298 297 296 295 294 292 291 291 290 289 289 289 289 289 290 290 290 291 291 291 291
358 358 357 357 357 357 356 356 355 354 354 353 352 352 351 351 349 348 346 345 344 343 342 341 340 339 338 337 338 338 339 339 339 338 338 337 336 336 335 334 332 330 328 325 322 319 315 312 308 305 303 300 298 295 294 292 290 289 288 287 287 287 288 288 290 291 292 292 292
358 358 358 358 358 357 356 356 355 354 353 352 352 352 351 350 349 348 346 345 344 343 342 341 340 339 338 338 338 339 339 339 339 339 339 339 338 338 337 337 335 334 333 331 330 328 326 322 319 316 313 310 307 304 302 300 298 296 294 293 292 291 290 290 290 291 292 293 293
359 359 359 360 359 358 357 356 355 354 353 352 352 351 350 350 349 348 347 345 344 344 343 342 341 340 339 340 340 339 339 339 339 339 339 338 338 337 336 336 335 334 333 332 331 330 328 326 324 322 320 317 315 313 311 309 308 306 305 304 303 301 299 297 296 295 295 296 296
360 360 1 1 1 360 359 357 356 354 353 352 351 351 350 350 349 348 347 346 345 344 344 343 341 340 340 340 340 340 340 339 339 338 338 338 337 337 336 335 334 333 332 331 330 329 328 326 324 322 320 318 317 315 314 312 311 310 310 309 309 308 307 305 304 302 302 301 301
1 2 2 2 1 1 360 358 356 354 352 351 350 350 350 349 349 348 347 345 345 344 343 342 341 340 340 340 340 340 339 338 338 337 337 336 336 336 335 334 333 332 331 330 329 328 327 325 323 320 318 316 314 313 311 310 309 309 309 308 308 308 308 308 307 307 306 305 305
2 3 2 2 1 0 359 357 355 353 352 350 349 349 348 348 348 347 346 344 343 343 342 341 341 340 340 339 339 338 337 336 336 335 335 334 334 334 333 333 332 331 331 330 329 327 326 324 321 319 316 314 312 311 310 309 308 307 306 306 306 306 306 306 306 306 306 306 306
2 3 2 1 360 359 357 356 354 353 351 350 349 348 347 347 347 346 344 343 342 341 341 340 339 339 339 339 338 337 336 335 334 333 333 332 332 332 331 331 331 331 330 329 328 327 326 324 321 319 317 316 314 312 311 310 309 308 307 306 305 304 304 304 304 305 305 305 306
2 1 0 359 358 357 356 354 353 352 351 350 349 348 347 346 345 344 343 342 342 341 340 339 338 338 338 338 337 336 335 334 333 332 332 331 331 331 330 330 330 330 330 329 328 328 326 325 324 322 321 319 317 315 314 313 312 310 309 308 307 306 305 304 304 304 305 305 305
359 359 358 357 357 356 355 353 353 353 352 351 350 348 347 346 345 345 344 343 342 341 340 339 338 338 337 337 337 336 335 335 334 333 332 332 331 331 330 330 330 329 329 329 329 328 328 327 327 325 324 321 319 318 316 315 314 313 312 312 311 310 309 307 306 306 306 306 306
355 356 356 356 356 355 355 354 354 354 353 352 351 349 348 347 346 346 345 344 343 341 340 339 339 338 338 337 337 336 336 336 335 334 333 333 332 331 331 331 330 330 330 330 330 330 330 329 328 327 325 323 320 319 317 316 315 315 314 314 313 313 313 312 311 309 308 307 306
352 354 355 356 356 356 355 355 355 354 353 352 351 350 349 347 347 346 345 344 343 342 341 340 340 339 339 338 338 338 338 338 338 337 336 335 334 333 332 332 331 331 331 331 331 331 330 329 328 326 325 324 322 320 319 318 317 316 316 316 316 316 316 316 315 313 311 309 308
351 353 354 355 356 355 355 355 354 353 352 351 350 349 348 347 346 345 344 343 342 342 341 341 341 340 340 340 341 341 341 341 340 339 338 337 336 335 334 333 332 332 331 331 331 331 330 329 327 326 326 325 323 321 320 319 318 318 317 318 318 319 319 318 317 316 315 313 311
350 352 353 355 355 355 355 355 354 353 352 350 349 348 347 346 345 344 344 344 343 343 343 343 343 342 342 342 343 343 343 342 341 340 339 338 337 336 335 334 333 332 331 331 330 330 329 328 326 326 326 326 325 324 322 321 320 319 320 320 321 321 321 321 320 318 317 316 314
349 351 353 355 355 356 355 354 354 353 351 350 349 348 347 346 345 345 344 344 344 344 344 344 344 344 343 343 343 343 343 342 341 340 339 338 337 336 335 334 333 331 330 330 329 329 328 327 326 326 327 327 327 326 324 322 322 323 323 323 324 324 324 323 322 321 320 318 317
350 352 354 355 356 356 355 355 354 353 351 350 349 348 347 346 346 345 345 345 345 345 344 344 344 343 343 343 343 342 342 341 341 340 339 338 337 336 335 334 332 331 330 329 329 328 327 327 327 327 329 330 329 328 326 326 326 327 327 327 327 327 326 325 324 322 321 320 319
351 353 354 356 355 355 355 354 353 352 351 350 348 347 347 346 346 345 345 345 344 344 344 343 343 342 342 341 341 341 341 340 340 339 338 337 336 335 334 333 331 330 330 329 329 328 327 327 328 329 331 332 331 330 329 330 331 331 331 330 329 328 327 326 325 324 323 322 320
352 354 355 355 355 355 354 353 352 351 350 349 348 347 346 345 345 344 344 344 343 343 343 342 342 341 341 340 340 340 339 339 339 338 337 336 335 334 333 332 331 330 330 330 329 328 328 328 330 332 334 334 333 333 333 334 334 333 332 331 330 329 329 327 326 325 324 322 321
352 354 355 355 354 353 353 352 351 350 349 348 347 346 345 344 344 343 343 342 342 342 342 341 341 340 340 339 339 338 338 337 337 336 336 335 334 333 332 331 331 331 331 331 329 329 329 330 333 335 336 336 335 335 336 336 335 333 332 331 330 330 329 328 327 326 325 324 322
352 353 354 354 353 352 351 350 349 349 347 346 345 345 344 344 343 342 342 342 341 341 340 340 340 339 339 338 338 337 337 336 336 335 334 334 333 332 332 331 331 331 332 331 330 330 331 333 336 337 338 337 337 337 337 336 334 332 331 330 330 330 329 329 328 327 326 325 323
351 352 353 353 352 351 350 349 349 348 347 346 345 344 343 343 342 342 341 341 340 339 339 339 338 338 337 337 337 336 336 335 335 334 334 333 332 332 331 331 331 332 332 332 331 331 332 335 338 340 340 339 338 338 337 335 333 332 331 330 329 329 329 329 328 327 326 325 324
351 351 351 351 351 350 349 349 348 347 346 345 344 343 343 342 341 341 340 340 339 338 338 338 338 337 337 336 336 335 335 334 333 333 333 332 332 332 332 331 331 332 332 332 332 332 333 336 339 341 341 340 338 337 335 334 332 331 330 329 329 329 329 329 327 327 326 325 324
349 350 350 350 350 349 349 348 347 346 345 344 343 343 342 342 341 340 340 340 338 338 338 337 337 336 336 335 335 334 333 332 332 332 332 332 332 333 333 332 332 332 333 333 332 333 335 337 340 341 341 340 337 335 334 332 331 330 329 329 328 328 328 328 327 326 325 324 323
349 349 349 349 349 349 348 347 347 346 344 343 343 342 342 342 341 340 340 339 338 338 337 337 336 335 334 334 333 332 332 331 331 331 332 332 332 333 334 334 333 333 333 334 334 334 336 338 340 341 340 338 336 334 332 331 330 329 328 328 327 327 327 327 326 324 323 322 322
347 348 348 348 348 348 347 347 346 345 344 343 343 342 342 342 341 340 340 339 338 337 337 336 335 334 333 332 332 331 331 331 330 331 331 332 333 334 335 336 335 335 335 335 336 336 337 338 340 340 339 337 335 332 331 330 329 328 327 327 326 325 325 325 324 322 321 321 321
346 346 347 347 348 347 347 346 345 345 344 343 343 343 342 342 341 340 339 339 338 337 336 335 334 333 332 331 331 331 331 331 332 332 332 334 335 337 338 339 338 337 337 338 338 338 339 339 339 339 338 336 333 331 330 329 327 326 325 325 325 324 322 322 321 321 320 320 320
Height
1477 1476 1475 1474 1474 1473 1473 1472 1472 1471 1471 1470 1469 1469 1468 1468 1467 1466 1466 1465 1464 1463 1463 1462 1461 1461 1460 1460 1459 1459 1458 1458 1458 1458 1457 1457 1456 1456 1455 1455 1455 1455 1454 1454 1454 1453 1453 1453 1453 1452 1452 1452 1452 1451 1451 1452 1452 1452 1451 1451 1451 1451 1450 1450 1450 1450 1450 1450 1450
1476 1476 1475 1475 1474 1473 1473 1472 1472 1471 1470 1470 1469 1468 1468 1467 1467 1466 1465 1464 1463 1463 1462 1461 1461 1460 1459 1459 1458 1458 1457 1457 1457 1456 1456 1455 1455 1454 1454 1454 1453 1453 1453 1453 1452 1452 1452 1451 1451 1450 1450 1450 1450 1450 1449 1449 1450 1449 1449 1449 1448 1448 1448 1448 1447 1447 1447 1447 1447
1477 1476 1475 1474 1474 1473 1472 1472 1471 1471 1470 1469 1469 1468 1467 1467 1466 1465 1464 1464 1463 1462 1462 1461 1460 1459 1459 1458 1458 1457 1456 1456 1455 1455 1454 1454 1453 1453 1453 1452 1452 1452 1451 1451 1450 1450 1450 1449 1449 1449 1448 1448 1448 1448 1448 1448 1448 1448 1447 1446 1446 1446 1445 1445 1444 1444 1444 1444 1443
1477 1476 1475 1474 1474 1473 1472 1472 1471 1470 1470 1469 1468 1468 1467 1466 1465 1465 1464 1463 1462 1462 1461 1460 1459 1458 1458 1457 1456 1456 1455 1454 1454 1453 1453 1452 1452 1451 1451 1450 1450 1449 1449 1449 1448 1448 1448 1448 1448 1447 1447 1447 1447 1446 1446 1446 1446 1446 1445 1444 1444 1444 1443 1443 1442 1442 1442 1441 1441
1477 1476 1475 1474 1474 1473 1472 1471 1470 1470 1469 1468 1468 1467 1466 1466 1465 1464 1463 1463 1462 1461 1460 1459 1458 1458 1457 1456 1455 1454 1454 1453 1453 1452 1451 1451 1450 1449 1449 1448 1448 1448 1447 1447 1447 1446 1446 1446 1446 1445 1445 1445 1445 1444 1444 1444 1444 1443 1443 1442 1442 1442 1441 1440 1440 1439 1439 1438 1438
1477 1476 1475 1474 1474 1473 1472 1471 1470 1469 1469 1468 1468 1467 1466 1465 1464 1464 1463 1462 1461 1461 1460 1459 1458 1457 1456 1455 1454 1453 1453 1452 1451 1450 1450 1449 1448 1448 1447 1447 1446 1446 1445 1445 1444 1444 1444 1443 1443 1443 1443 1442 1442 1442 1442 1442 1441 1440 1440 1439 1439 1439 1439 1438 1438 1437 1437 1436 1435
1477 1476 1475 1475 1474 1473 1472 1471 1470 1469 1469 1468 1467 1467 1466 1465 1464 1463 1463 1462 1461 1460 1459 1458 1458 1457 1456 1455 1454 1453 1452 1451 1450 1449 1448 1448 1447 1446 1446 1445 1445 1444 1443 1443 1442 1442 1442 1441 1441 1440 1440 1439 1439 1439 1439 1438 1438 1437 1437 1437 1436 1436 1436 1436 1435 1435 1434 1434 1433
1477 1476 1476 1475 1474 1473 1472 1471 1470 1469 1468 1468 1467 1466 1466 1465 1464 1463 1462 1462 1461 1460 1459 1458 1457 1456 1455 1454 1453 1452 1451 1450 1449 1448 1448 1447 1446 1445 1444 1444 1443 1442 1442 1441 1441 1440 1440 1439 1439 1438 1438 1437 1437 1437 1436 1436 1435 1435 1434 1434 1433 1433 1433 1433 1433 1432 1432 1431 1431
1477 1476 1475 1474 1474 1473 1472 1471 1470 1469 1468 1468 1467 1466 1465 1464 1463 1463 1462 1461 1460 1459 1458 1458 1457 1456 1455 1454 1453 1452 1451 1450 1449 1448 1447 1446 1445 1444 1443 1443 1442 1441 1440 1440 1439 1439 1438 1438 1437 1437 1436 1436 1435 1434 1433 1433 1433 1433 1432 1431 1430 1430 1429 1429 1428 1428 1428 1427 1427
1477 1476 1475 1474 1473 1473 1472 1471 1470 1469 1468 1467 1466 1465 1464 1464 1463 1462 1461 1460 1459 1458 1458 1457 1456 1455 1454 1453 1453 1451 1450 1449 1448 1448 1447 1446 1445 1444 1443 1442 1441 1440 1440 1439 1438 1438 1437 1437 1436 1435 1435 1434 1433 1433 1432 1431 1431 1430 1429 1428 1428 1427 1426 1426 1425 1425 1424 1423 1423
1477 1476 1475 1474 1473 1473 1472 1470 1469 1468 1468 1467 1466 1465 1464 1463 1462 1461 1461 1460 1459 1458 1457 1456 1455 1454 1453 1453 1452 1451 1450 1449 1448 1447 1446 1445 1444 1443 1443 1442 1441 1440 1439 1438 1438 1437 1436 1435 1435 1434 1433 1433 1432 1431 1430 1429 1428 1428 1427 1426 1425 1424 1424 1423 1423 1422 1421 1421 1420
1477 1476 1475 1474 1473 1472 1471 1470 1469 1468 1467 1466 1465 1464 1463 1463 1462 1461 1460 1459 1458 1457 1456 1456 1454 1453 1453 1452 1451 1450 1449 1448 1447 1446 1445 1444 1443 1443 1442 1441 1440 1439 1438 1438 1437 1436 1435 1434 1433 1433 1432 1431 1430 1429 1428 1427 1427 1426 1425 1424 1423 1422 1422 1421 1420 1419 1419 1418 1417
1477 1476 1475 1474 1473 1472 1471 1470 1469 1468 1467 1466 1465 1464 1463 1462 1461 1460 1459 1458 1457 1457 1456 1455 1454 1453 1452 1451 1450 1449 1448 1447 1446 1445 1444 1443 1443 1442 1441 1440 1439 1438 1438 1437 1436 1435 1434 1433 1432 1431 1430 1430 1429 1428 1427 1426 1425 1423 1423 1422 1421 1420 1419 1418 1418 1417 1416 1415 1414
1476 1475 1474 1473 1472 1471 1470 1469 1468 1468 1467 1466 1464 1463 1462 1461 1460 1459 1458 1458 1457 1456 1455 1454 1453 1452 1451 1450 1449 1448 1447 1446 1445 1444 1443 1442 1441 1441 1440 1439 1438 1437 1436 1435 1434 1433 1433 1432 1431 1430 1429 1428 1427 1426 1425 1424 1423 1422 1420 1419 1418 1417 1417 1416 1415 1414 1413 1412 1411
1476 1475 1474 1473 1472 1471 1470 1469 1468 1467 1466 1465 1464 1463 1462 1461 1460 1459 1458 1457 1456 1455 1454 1453 1452 1451 1450 1449 1448 1447 1446 1445 1444 1443 1442 1441 1440 1439 1438 1438 1437 1436 1435 1434 1433 1432 1431 1430 1429 1428 1427 1426 1425 1424 1423 1422 1421 1419 1418 1417 1416 1415 1414 1413 1412 1411 1410 1409 1408
1475 1474 1473 1472 1471 1470 1469 1468 1468 1467 1466 1464 1463 1462 1461 1460 1459 1458 1457 1456 1455 1454 1453 1452 1451 1450 1449 1448 1447 1446 1445 1444 1443 1442 1441 1440 1439 1438 1437 1436 1435 1434 1433 1433 1432 1431 1430 1428 1427 1426 1425 1424 1423 1422 1421 1420 1419 1418 1416 1415 1414 1413 1412 1411 1410 1409 1408 1407 1406
1474 1473 1473 1472 1471 1470 1469 1468 1467 1466 1465 1464 1463 1462 1460 1459 1458 1457 1456 1455 1454 1453 1452 1451 1450 1449 1448 1447 1446 1445 1444 1443 1442 1441 1440 1438 1438 1437 1436 1435 1434 1433 1432 1431 1429 1428 1428 1427 1426 1424 1423 1422 1421 1420 1418 1418 1416 1415 1414 1413 1412 1411 1410 1409 1408 1407 1405 1404 1403
1474 1473 1472 1471 1470 1469 1468 1467 1466 1465 1464 1463 1462 1461 1460 1458 1458 1457 1455 1454 1453 1452 1451 1450 1449 1448 1447 1446 1444 1443 1443 1442 1440 1439 1438 1437 1436 1435 1434 1433 1432 1431 1430 1428 1428 1426 1425 1424 1423 1422 1421 1419 1418 1417 1416 1414 1413 1412 1411 1410 1409 1408 1408 1407 1406 1404 1403 1402 1401
1473 1472 1471 1470 1469 1468 1467 1466 1465 1464 1463 1462 1461 1460 1459 1458 1457 1456 1455 1454 1453 1451 1450 1449 1448 1447 1446 1445 1443 1443 1441 1440 1439 1438 1437 1436 1435 1434 1433 1431 1430 1429 1428 1427 1425 1424 1423 1422 1420 1419 1418 1417 1415 1414 1413 1412 1410 1409 1408 1407 1406 1405 1404 1403 1403 1402 1401 1399 1398
1473 1472 1471 1469 1468 1468 1467 1466 1465 1463 1463 1462 1461 1459 1458 1457 1456 1455 1454 1453 1452 1451 1449 1448 1447 1446 1445 1444 1443 1442 1441 1439 1438 1437 1436 1435 1434 1433 1432 1430 1429 1428 1426 1425 1424 1423 1421 1420 1418 1417 1416 1414 1413 1412 1410 1409 1408 1406 1405 1404 1403 1402 1401 1400 1399 1398 1398 1397 1395
1472 1471 1470 1469 1468 1467 1466 1465 1464 1463 1462 1461 1460 1459 1458 1457 1456 1455 1453 1452 1451 1450 1449 1448 1447 1445 1444 1443 1442 1441 1440 1438 1438 1436 1435 1434 1433 1432 1430 1429 1428 1427 1425 1424 1423 1421 1420 1418 1417 1416 1414 1413 1412 1410 1408 1407 1405 1404 1403 1402 1400 1399 1398 1397 1396 1395 1394 1393 1392
1472 1471 1470 1468 1468 1467 1466 1465 1464 1463 1462 1461 1460 1458 1458 1456 1455 1454 1453 1452 1451 1450 1448 1447 1446 1445 1443 1442 1441 1440 1439 1438 1437 1435 1434 1433 1432 1431 1429 1428 1427 1425 1424 1423 1421 1420 1418 1417 1416 1414 1413 1411 1410 1408 1407 1405 1403 1402 1401 1399 1398 1397 1396 1395 1394 1393 1392 1390 1389
1472 1470 1469 1468 1467 1466 1465 1464 1463 1462 1461 1460 1459 1458 1457 1456 1455 1453 1453 1451 1450 1449 1448 1447 1445 1444 1443 1442 1440 1439 1438 1437 1436 1434 1433 1432 1431 1429 1428 1427 1425 1424 1423 1421 1420 1418 1417 1415 1413 1412 1411 1409 1408 1406 1404 1403 1402 1400 1398 1397 1396 1395 1393 1393 1392 1390 1389 1388 1386
1471 1470 1469 1468 1467 1466 1465 1464 1463 1462 1461 1459 1458 1457 1456 1455 1454 1453 1452 1450 1449 1448 1447 1446 1444 1443 1442 1441 1439 1438 1437 1435 1434 1433 1432 1430 1429 1428 1426 1425 1424 1423 1421 1420 1418 1417 1415 1413 1411 1410 1408 1407 1405 1404 1402 1401 1399 1398 1396 1394 1393 1392 1391 1390 1389 1388 1386 1385 1383
1471 1470 1468 1468 1466 1465 1464 1463 1462 1461 1459 1458 1457 1456 1455 1454 1453 1452 1450 1449 1448 1447 1446 1444 1443 1442 1441 1440 1438 1437 1436 1434 1433 1431 1430 1429 1427 1426 1424 1423 1422 1420 1419 1418 1416 1415 1413 1412 1410 1408 1406 1404 1403 1401 1400 1398 1397 1395 1393 1392 1390 1389 1387 1386 1385 1384 1383 1382 1381
1470 1469 1468 1467 1465 1464 1463 1462 1461 1459 1458 1457 1456 1455 1453 1453 1451 1450 1449 1448 1447 1446 1444 1443 1442 1441 1439 1438 1437 1436 1434 1433 1431 1430 1428 1427 1425 1424 1423 1421 1420 1418 1417 1415 1414 1413 1412 1410 1409 1407 1405 1403 1401 1399 1397 1396 1394 1393 1391 1390 1388 1387 1385 1383 1382 1381 1380 1378 1378
1470 1468 1467 1466 1464 1463 1462 1461 1459 1458 1457 1456 1454 1453 1452 1451 1450 1449 1448 1447 1445 1444 1443 1442 1441 1439 1438 1437 1435 1434 1433 1431 1430 1428 1427 1425 1424 1422 1421 1419 1418 1416 1415 1413 1412 1411 1410 1408 1407 1406 1404 1402 1400 1398 1396 1393 1392 1391 1389 1388 1386 1384 1383 1381 1379 1378 1376 1375 1374
1469 1468 1466 1465 1463 1462 1461 1459 1458 1457 1456 1454 1453 1452 1451 1450 1449 1448 1446 1445 1444 1443 1441 1440 1439 1438 1436 1435 1433 1432 1430 1429 1428 1426 1425 1423 1422 1420 1419 1418 1416 1414 1413 1412 1410 1409 1408 1407 1405 1404 1402 1400 1398 1396 1394 1392 1390 1388 1387 1386 1384 1383 1381 1379 1378 1375 1373 1372 1370
1468 1467 1465 1464 1462 1461 1460 1458 1457 1456 1455 1453 1452 1451 1450 1449 1448 1446 1445 1444 1442 1441 1439 1438 1437 1435 1434 1432 1431 1430 1428 1427 1426 1424 1423 1422 1420 1419 1417 1416 1414 1413 1412 1410 1409 1408 1406 1405 1403 1402 1401 1399 1397 1394 1393 1391 1389 1387 1385 1384 1382 1381 1379 1378 1376 1373 1372 1369 1368
1467 1466 1464 1463 1461 1460 1458 1457 1456 1455 1453 1452 1451 1450 1448 1447 1446 1444 1443 1442 1440 1439 1438 1436 1434 1433 1432 1430 1429 1428 1426 1425 1424 1423 1421 1420 1418 1417 1416 1414 1413 1412 1410 1409 1408 1406 1405 1403 1402 1400 1399 1397 1395 1393 1391 1389 1388 1386 1384 1382 1380 1379 1377 1376 1373 1372 1370 1368 1365
1466 1464 1463 1461 1460 1458 1457 1456 1454 1453 1452 1451 1449 1448 1447 1445 1444 1443 1441 1440 1439 1437 1436 1435 1433 1432 1430 1429 1428 1426 1425 1423 1422 1421 1419 1418 1417 1416 1414 1413 1412 1410 1409 1408 1406 1405 1403 1402 1400 1398 1397 1395 1393 1392 1390 1388 1386 1384 1382 1380 1379 1377 1376 1374 1372 1370 1368 1366 1363
1465 1463 1461 1460 1458 1457 1456 1454 1453 1452 1451 1449 1448 1447 1445 1444 1443 1441 1440 1439 1438 1436 1435 1433 1432 1431 1429 1428 1426 1425 1424 1422 1421 1420 1418 1417 1416 1414 1413 1412 1410 1409 1408 1406 1405 1403 1402 1400 1398 1397 1395 1394 1392 1390 1388 1386 1384 1382 1380 1379 1377 1375 1374 1372 1370 1368 1365 1363 1361
1463 1461 1460 1458 1457 1455 1454 1453 1452 1451 1449 1448 1447 1446 1444 1443 1442 1440 1439 1438 1437 1435 1434 1432 1431 1429 1428 1427 1425 1424 1423 1421 1420 1419 1418 1416 1415 1413 1412 1411 1409 1408 1406 1405 1403 1402 1400 1398 1397 1395 1393 1392 1390 1388 1386 1384 1382 1380 1378 1377 1375 1373 1372 1370 1368 1365 1363 1361 1359
1462 1460 1458 1457 1456 1454 1453 1452 1451 1450 1448 1447 1446 1445 1443 1442 1441 1439 1438 1437 1436 1434 1433 1432 1430 1429 1427 1426 1424 1423 1422 1421 1419 1418 1417 1415 1414 1413 1411 1410 1408 1407 1405 1403 1402 1400 1399 1397 1395 1393 1392 1390 1388 1386 1384 1382 1380 1378 1376 1374 1373 1371 1369 1367 1365 1363 1361 1358 1356
1460 1459 1458 1456 1455 1454 1453 1451 1450 1449 1448 1446 1445 1444 1443 1441 1440 1438 1437 1436 1435 1433 1432 1431 1430 1428 1427 1425 1424 1423 1421 1419 1418 1417 1415 1414 1413 1411 1410 1408 1407 1406 1404 1403 1401 1399 1397 1396 1394 1392 1390 1388 1386 1384 1382 1380 1378 1376 1374 1372 1370 1368 1366 1364 1362 1360 1358 1356 1353
1459 1458 1457 1455 1454 1453 1452 1451 1449 1448 1447 1446 1444 1443 1442 1441 1439 1438 1437 1435 1434 1433 1432 1430 1429 1428 1426 1424 1423 1422 1420 1418 1417 1416 1414 1413 1411 1410 1408 1407 1406 1404 1403 1401 1399 1398 1396 1394 1393 1391 1389 1387 1384 1382 1380 1378 1376 1374 1372 1369 1367 1365 1363 1361 1359 1357 1354 1352 1350
1459 1457 1456 1455 1453 1453 1451 1450 1449 1448 1446 1445 1443 1442 1441 1440 1438 1437 1436 1434 1433 1432 1430 1429 1428 1426 1425 1423 1422 1421 1419 1418 1416 1414 1413 1412 1410 1408 1407 1405 1404 1403 1401 1400 1398 1397 1395 1393 1391 1389 1387 1385 1383 1381 1378 1376 1374 1372 1369 1367 1364 1362 1360 1358 1356 1353 1351 1349 1347
1458 1457 1455 1454 1453 1452 1450 1449 1448 1447 1445 1444 1443 1442 1440 1439 1438 1436 1435 1433 1432 1431 1429 1428 1427 1425 1424 1423 1421 1420 1418 1417 1415 1414 1412 1410 1409 1407 1406 1404 1403 1401 1400 1398 1397 1395 1393 1392 1390 1388 1386 1384 1382 1379 1377 1375 1373 1370 1368 1365 1362 1360 1358 1355 1353 1350 1348 1345 1343
1458 1456 1455 1453 1452 1451 1450 1448 1447 1446 1445 1443 1442 1441 1440 1438 1437 1435 1434 1433 1431 1430 1428 1427 1426 1424 1423 1422 1421 1419 1418 1416 1415 1413 1411 1409 1408 1406 1405 1403 1401 1400 1399 1397 1396 1394 1392 1391 1389 1387 1386 1383 1381 1379 1376 1374 1371 1368 1366 1363 1360 1357 1355 1353 1350 1348 1344 1342 1340
1457 1456 1454 1453 1452 1451 1449 1448 1447 1445 1444 1443 1441 1440 1439 1438 1436 1435 1433 1432 1431 1429 1428 1426 1425 1424 1422 1421 1419 1418 1417 1415 1413 1412 1410 1408 1407 1405 1404 1402 1400 1398 1397 1396 1394 1393 1391 1389 1388 1386 1385 1383 1380 1378 1375 1373 1370 1367 1364 1362 1359 1356 1353 1349 1348 1345 1342 1339 1337
1456 1455 1454 1453 1451 1450 1449 1448 1446 1445 1443 1442 1441 1439 1438 1437 1435 1434 1433 1431 1430 1428 1427 1426 1424 1423 1421 1420 1418 1417 1415 1413 1412 1410 1409 1407 1405 1404 1402 1400 1398 1397 1395 1394 1393 1391 1389 1388 1386 1385 1383 1382 1379 1377 1375 1372 1369 1366 1363 1360 1358 1355 1352 1348 1344 1342 1339 1336 1333